GPS BIII-5 (PRN 11)

Last updated on Thu Mar 17 2022 00:03:00 GMT+0000 (Coordinated Universal Time)

1 48859U 21054A 22075.44765941 -.00000058 00000+0 00000+0 0 9994 2 48859 55.1406 34.7939 0002882 207.9491 156.0569 2.00551033 5594
UTC large
Height (km)
Speed (km/s)
/
Latitude / Longitude
Inclination (degrees)
Orbital Period (minutes)
Azimuth
Elevation
Range (km)
Doppler Factor

Next 0 passes for location: London (51.5072 / 0.1276)

Sorry there are no passes over London.
GPS BIII-5 (PRN 11)